Westfield, MA

2:39 PM EST on December 18, 2017 (GMT -0500)
Barnes Municipal

Weather History for KBAF - April, 2013

Change the Weather History Date:

Friday, April 19, 2013

  Actual Average Record
Temperature  
Mean Temperature 62 °F -  
Max Temperature 75 °F 59 °F 91 °F (2004)
Min Temperature 51 °F 36 °F 27 °F (2001)
Degree Days  
Heating Degree Days 3    
Growing Degree Days 12 (Base 50)    
Moisture  
Dew Point 56 °F    
Average Humidity 83    
Maximum Humidity 100    
Minimum Humidity 61    
Precipitation  
Precipitation 0.24 in - - ()
Sea Level Pressure  
Sea Level Pressure 29.86 in    
Wind  
Wind Speed 9 mph (South)    
Max Wind Speed 23 mph    
Max Gust Speed 36 mph    
Visibility 7 miles    
Events Rain , Thunderstorm    
Averages and records for this station are not official NWS values.
T = Trace of Precipitation, MM = Missing Value Source: NWS Daily Summary

Daily Weather History Graph

Daily Weather History Graph

Search for Another Location

Airport or City:

Trip Planner

Search our weather history database for the weather conditions in past years. The results will help you decide how hot, cold, wet, or windy it might be!

Date:

Astronomy

Apr. 19, 2013 Rise Set
Actual Time 6:03 AM EDT 7:36 PM EDT
Civil Twilight 5:34 AM EDT 8:06 PM EDT
Nautical Twilight 4:58 AM EDT 8:42 PM EDT
Astronomical Twilight 4:20 AM EDT 9:20 PM EDT
Moon 1:12 PM EDT (4/19) 2:24 AM EDT (4/19)
Length of Visible Light 14h 32m
Length of Day
13h 33m
First Quarter, 61% of the Moon is Illuminated
Apr 19
First Quarter
Apr 25
Full
May 2
Last Quarter
May 9
New
May 18
First Quarter

Hourly Weather History & Observations

Time (EDT) Temp. Dew Point Humidity Pressure Visibility Wind Dir Wind Speed Gust Speed Precip Events Conditions
12:53 AM 52.0 °F 45.0 °F 77% 30.12 in 10.0 mi South 5.8 mph - N/A   Overcast
1:24 AM 51.8 °F 44.6 °F 76% 30.09 in 10.0 mi SSE 6.9 mph - N/A   Overcast
1:53 AM 52.0 °F 46.0 °F 80% 30.07 in 10.0 mi South 5.8 mph - N/A   Overcast
2:39 AM 51.8 °F 46.4 °F 82% 30.04 in 10.0 mi SSW 5.8 mph - N/A   Overcast
2:53 AM 52.0 °F 46.9 °F 83% 30.05 in 10.0 mi South 4.6 mph - N/A   Overcast
3:53 AM 52.0 °F 48.9 °F 89% 30.04 in 6.0 mi Calm Calm - N/A   Overcast
4:19 AM 51.8 °F 48.2 °F 88% 30.02 in 2.5 mi Calm Calm - N/A   Overcast
4:35 AM 51.8 °F 48.2 °F 88% 30.01 in 1.5 mi Calm Calm - N/A   Overcast
4:42 AM 51.8 °F 48.2 °F 88% 30.00 in 1.5 mi ENE 3.5 mph - N/A   Overcast
4:53 AM 51.1 °F 50.0 °F 96% 30.00 in 1.8 mi Calm Calm - N/A   Overcast
5:14 AM 51.8 °F 51.8 °F 100% 29.98 in 0.8 mi South 5.8 mph - N/A   Mist
5:53 AM 53.1 °F 52.0 °F 96% 29.99 in 0.8 mi SSW 4.6 mph - N/A   Mist
6:53 AM 54.0 °F 53.1 °F 97% 29.99 in 1.2 mi Calm Calm - N/A   Overcast
7:53 AM 55.9 °F 55.0 °F 97% 29.97 in 1.2 mi South 9.2 mph - N/A   Overcast
8:25 AM 57.2 °F 55.4 °F 94% 29.97 in 2.5 mi South 10.4 mph - N/A   Overcast
8:32 AM 57.2 °F 55.4 °F 94% 29.97 in 4.0 mi South 12.7 mph - N/A   Overcast
8:53 AM 59.0 °F 57.0 °F 93% 29.96 in 3.0 mi South 10.4 mph - N/A   Overcast
9:04 AM 59.0 °F 57.2 °F 94% 29.95 in 10.0 mi South 11.5 mph - N/A   Overcast
9:53 AM 62.1 °F 57.9 °F 86% 29.94 in 3.0 mi South 12.7 mph - N/A   Overcast
10:53 AM 64.9 °F 57.9 °F 78% 29.91 in 6.0 mi South 12.7 mph - N/A   Haze
11:53 AM 70.0 °F 57.9 °F 65% 29.87 in 10.0 mi SSW 13.8 mph 23.0 mph N/A   Overcast
12:10 PM 69.8 °F 57.2 °F 64% 29.85 in 10.0 mi South 13.8 mph 24.2 mph N/A   Overcast
12:53 PM 73.0 °F 59.0 °F 61% 29.83 in 10.0 mi SSW 20.7 mph 32.2 mph N/A   Overcast
1:53 PM 72.0 °F 57.9 °F 61% 29.81 in 10.0 mi South 19.6 mph 31.1 mph N/A   Overcast
2:00 PM 71.6 °F 59.0 °F 64% 29.80 in 10.0 mi South 21.9 mph 34.5 mph N/A   Overcast
2:53 PM 72.0 °F 60.1 °F 66% 29.78 in 10.0 mi South 23.0 mph 35.7 mph N/A   Overcast
3:51 PM 69.8 °F 62.6 °F 78% 29.75 in 10.0 mi South 18.4 mph 25.3 mph N/A   Overcast
3:53 PM 70.0 °F 61.0 °F 73% 29.75 in 10.0 mi South 20.7 mph 28.8 mph N/A   Overcast
4:53 PM 70.0 °F 60.1 °F 71% 29.71 in 10.0 mi South 15.0 mph 23.0 mph N/A   Overcast
5:53 PM 66.9 °F 60.1 °F 79% 29.70 in 10.0 mi South 12.7 mph 24.2 mph N/A   Overcast
6:06 PM 66.2 °F 60.8 °F 83% 29.70 in 10.0 mi South 17.3 mph 28.8 mph N/A   Overcast
6:53 PM 64.9 °F 60.1 °F 84% 29.70 in 10.0 mi South 15.0 mph 23.0 mph N/A   Overcast
7:53 PM 64.0 °F 59.0 °F 84% 29.68 in 10.0 mi South 10.4 mph 20.7 mph N/A   Overcast
8:53 PM 63.0 °F 59.0 °F 87% 29.67 in 10.0 mi South 13.8 mph 21.9 mph N/A   Overcast
9:53 PM 64.0 °F 60.1 °F 87% 29.64 in 10.0 mi South 17.3 mph 26.5 mph N/A   Overcast
10:53 PM 66.0 °F 61.0 °F 84% 29.64 in 10.0 mi South 19.6 mph 26.5 mph 0.00 in   Overcast
11:18 PM 64.4 °F 60.8 °F 88% 29.66 in 4.0 mi South 10.4 mph - 0.09 in Rain , Thunderstorm Rain
11:26 PM 64.4 °F 62.6 °F 94% 29.66 in 2.0 mi SSW 9.2 mph - 0.16 in Rain , Thunderstorm Rain
11:34 PM 64.4 °F 60.8 °F 88% 29.65 in 3.0 mi SW 9.2 mph - 0.23 in Rain , Thunderstorm Heavy Thunderstorms and Rain
11:51 PM 64.4 °F 60.8 °F 88% 29.64 in 10.0 mi South 8.1 mph - 0.24 in Rain Light Rain
11:53 PM 64.0 °F 61.0 °F 90% 29.64 in 10.0 mi South 9.2 mph - 0.24 in Rain Light Rain